Date,TemperatureHighF,TemperatureAvgF,TemperatureLowF,DewpointHighF,DewpointAvgF,DewpointLowF,HumidityHigh,HumidityAvg,HumidityLow,PressureMaxIn,PressureMinIn,WindSpeedMaxMPH,WindSpeedAvgMPH,GustSpeedMaxMPH,PrecipitationSumIn
2012-12-1,70.3,61.2,52.2,59.9,54.6,47.1,88,79,67,30.04,29.77,0,-999,0,0.00
2012-12-2,74.7,63.1,52.3,62.2,56.3,49.3,92,79,62,30.04,29.88,0,-999,0,0.00
2012-12-3,75.0,65.8,59.4,60.6,56.9,54.3,88,74,54,29.94,29.80,26,-324,26,0.00
2012-12-4,62.4,50.7,33.8,56.3,42.8,29.3,90,76,47,30.35,29.94,9,1,12,0.49
2012-12-5,59.9,43.7,29.1,44.2,32.6,25.9,91,68,40,30.36,30.06,11,1,11,0.00
2012-12-6,61.0,49.1,36.3,48.6,40.6,30.2,85,73,62,30.07,29.82,8,1,8,0.00
2012-12-7,55.4,51.9,47.8,50.5,48.3,43.5,91,88,82,29.86,29.77,6,1,6,0.00
2012-12-8,52.3,49.0,46.9,49.8,46.1,44.4,92,90,88,29.93,29.79,7,1,7,0.00
2012-12-9,52.2,46.0,28.2,49.6,42.6,21.0,93,88,74,30.04,29.75,12,2,12,0.06
2012-12-10,33.6,25.8,17.4,25.3,19.5,13.5,85,77,69,30.17,30.00,17,4,17,0.00
2012-12-11,47.7,27.8,14.0,29.8,19.2,10.6,89,72,42,30.27,30.08,16,2,16,0.00
2012-12-12,51.6,34.1,17.6,28.6,20.7,13.6,87,61,35,30.37,30.18,13,2,13,0.00
2012-12-13,59.5,44.0,31.8,32.5,25.3,19.0,62,48,34,30.26,30.09,17,2,17,0.00
2012-12-14,52.2,43.4,31.6,39.4,30.2,22.1,83,60,46,30.22,29.80,12,2,12,0.11
2012-12-15,63.1,51.9,41.0,48.7,42.7,33.1,90,72,51,29.80,29.64,27,6,27,0.05
2012-12-16,62.1,46.0,33.6,45.0,37.3,29.7,87,73,50,29.76,29.61,10,2,10,0.00
2012-12-17,41.5,37.5,28.8,37.9,34.5,25.7,90,89,86,29.83,29.70,12,3,12,0.00
2012-12-18,59.9,41.2,30.0,43.5,33.8,26.2,91,77,51,29.91,29.73,17,2,17,0.00
2012-12-19,59.5,48.9,29.1,55.6,42.9,25.2,89,80,70,29.89,29.37,12,-25,12,0.19
2012-12-20,57.4,35.7,27.1,53.6,30.2,19.6,91,80,67,30.28,29.31,36,-114,36,0.03
2012-12-21,45.5,31.3,23.0,27.3,20.9,16.5,78,66,47,30.39,30.25,18,3,18,0.00
2012-12-22,61.7,41.0,20.8,33.8,23.7,16.2,85,55,23,30.30,29.94,17,4,17,0.00
2012-12-23,60.3,47.0,34.3,48.2,36.9,27.1,78,68,48,29.95,29.75,11,2,11,0.00
2012-12-24,37.8,29.8,23.9,30.6,23.9,18.9,85,79,69,30.08,29.84,10,2,10,0.00
2012-12-25,31.1,26.0,21.0,23.7,20.3,16.3,85,79,71,30.16,29.99,13,3,13,0.00
2012-12-26,30.4,24.2,19.2,22.1,17.8,14.0,81,76,69,30.24,30.02,12,3,12,0.00
2012-12-27,37.9,29.5,19.8,27.3,22.6,15.1,84,76,63,30.18,29.94,12,2,12,0.00
2012-12-28,36.1,31.7,27.7,31.6,27.5,22.6,88,84,79,30.04,29.88,14,3,14,0.00
2012-12-29,34.7,25.2,17.8,24.4,18.6,12.4,81,76,63,30.41,30.03,17,5,17,0.00
2012-12-30,44.1,29.4,13.5,29.8,18.8,9.5,87,67,43,30.48,30.19,20,2,20,0.00
2012-12-31,36.0,34.7,32.4,32.9,29.6,21.6,90,82,56,30.22,30.00,5,0,5,0.22